STARLINK-1197 (45199 NORAD) Tracking and Keplerian Element Data

This shows tracking and keplerian element data for the satellite.

Feedback or suggestion? Click here.




ElementValue
Catalog45199
NameSTARLINK-1197
Epoch Orbit162
Epoch Day93.91667824
Epoch Year2020
RAAN44.5075
Inclination53
Eccentricity0.0001464
Argument of Perigee73.6733
Mean Anonmoly330.8103
Mean Motion15.62752691
Decay Rate-1.779E-05
L11 45199U 20012X 20093.91667824 -.00001779 00000-0 -13589-4 0 9996
L22 45199 53.0000 44.5075 0001464 73.6733 330.8103 15.62752691 1628

Live tracking and technical data element details for STARLINK-1197 (NORAD 45199). STARLINK-1197 can be tracked NOW for your location showing map with azimuth and elevation plus other details from your city location.

Track the satellite on the map from your city or location and see movement details for azimuth, elevation, latitude, longitude, range, height, and movement on the map or in text.







IsCatalogInMostPopularTable: catalog: 45199, numindb: 5
Update: records affected: 1



GetName: 45199 STARLINK-1197

Hit Count: updated at: Tue, 07 Apr 2020 17:38:56 GMT